Regional Weather Roundup
Issued by NWS

Home | Current Version | Previous Version | Graphics & Text | Print | Product List | Glossary On
Versions: 1 2 3 4 5 6 7 8 9 10 11 12 13 14 15 16 17 18 19 20 21 22 23 24 25 26 27 28 29 30 31 32 33 34 35 36 37 38 39 40 41 42 43 44 45 46 47 48 49 50
000
ASUS45 KABQ 062101
RWRNM
NEW MEXICO REGIONAL WEATHER ROUNDUP
NATIONAL WEATHER SERVICE ALBUQUERQUE NM
300 PM MDT MON JUL 06 2015

NOTE: "FAIR" MEANS FEW OR NO CLOUDS BELOW 12,000 FEET AGL WITH NO
       SIGNIFICANT WEATHER OR OBSTRUCTIONS TO VISION.

      THIS PRODUCT IS RELEASED AS TWO VERSIONS.  ONE VERSION NEAR
      THE TOP OF THE HOUR CONTAINING PRELIMINARY DATA FROM ALBUQUERQUE
      AND OTHER STATIONS.  A FINAL VERSION WITH ADDITIONAL DATA IS
      ISSUED ABOUT 10 MINUTES AFTER THE HOUR.

NMZ501-503-504-510>518-062200-
NORTHWEST PLATEAU/NORTHCENTRAL MOUNTAINS

CITY           SKY/WX    TMP DP  RH WIND       PRES   REMARKS
FARMINGTON     MOSUNNY   90  46  21 W14G22    30.08F
SANTA FE       PTSUNNY   75  54  47 NE20      30.20S
TAOS           CLOUDY    64  52  63 E14       30.28F

$$
NMZ402-403-502-505>509-062200-
WESTCENTRAL MOUNTAINS/SOUTHWEST MOUNTAINS

CITY           SKY/WX    TMP DP  RH WIND       PRES   REMARKS
GALLUP         PTSUNNY   82  50  32 N13       30.20F
SILVER CITY      N/A     86  50  28 NW12G18   30.15F

$$
NMZ407-409-411-412-062200-
SOUTHERN DESERTS

CITY           SKY/WX    TMP DP  RH WIND       PRES   REMARKS
DEMING         PTSUNNY   91  51  25 VRB7      30.04F
ALAMOGORDO     SUNNY     91  54  27 W5G16     30.01F
T OR C         PTSUNNY   90  51  26 N5        30.07F

$$
NMZ519>523-062200-
CENTRAL VALLEYS/CENTRAL HIGHLANDS

CITY           SKY/WX    TMP DP  RH WIND       PRES   REMARKS
ALBUQUERQUE    MOSUNNY   86  50  28 VRB6      30.10F
DOUBLE EAGLE   PTSUNNY   88  52  29 SW8       30.14F
MORIARTY ARPT    N/A     78  53  41 E17G23    30.19S
CLINES CORNERS CLOUDY    66  59  78 NE16G25   30.26S
BELEN          FAIR      90  46  22 NE7       30.09F
SOCORRO        NOT AVBL

$$
NMZ524>526-539-540-062200-
SOUTHCENTRAL MOUNTAINS

CITY           SKY/WX    TMP DP  RH WIND       PRES   REMARKS
RUIDOSO        NOT AVBL

$$
NMZ527>531-062200-
NORTHEAST HIGHLANDS/NORTHEAST PLAINS

CITY           SKY/WX    TMP DP  RH WIND       PRES   REMARKS
LAS VEGAS      RAIN      60  58  92 N13       30.29F FOG
RATON          LGT RAIN  63  59  87 E6        30.26S
CLAYTON        CLOUDY    70  61  73 N22G31    30.17S

$$
NMZ532>537-062200-
EASTCENTRAL PLAINS

CITY           SKY/WX    TMP DP  RH WIND       PRES   REMARKS
TUCUMCARI      PTSUNNY   86  60  41 N26G36    30.02S
CANNON AFB     MOSUNNY   81  60  48 NE16G22   30.01F
CLOVIS AIRPORT CLOUDY    68  63  83 N13         N/A  THUNDER

$$
NMZ028-029-538-062200-
SOUTHEAST PLAINS

CITY           SKY/WX    TMP DP  RH WIND       PRES   REMARKS
ROSWELL        CLOUDY    92  56  29 S8        29.94F
ARTESIA        DRIZZLE   84  63  48 S12G28    29.98R
CARLSBAD       PTSUNNY   99  56  23 W10G20    29.90F HX  97
HOBBS          MOSUNNY   97  54  23 S10G16    29.95F


$$


USA.gov is the U.S. government's official web portal to all federal, state and local government web resources and services.